Location: Sternwarte_Laufen
(47.9344°N, 12.9346°E)
Time: 00:53:48
(UTC+02:00)

Envisat - Pass Details

Date: 14 May 2026
Orbit: 761 x 763 km, 98.4° (Epoch: 7 June)

Event Time Altitude Azimuth Distance (km) Brightness Sun altitude
Rises 03:10:54 0° 20° (NNE) 3,235 7.8 -17.7°
Reaches altitude 10° 03:13:23 10° 29° (NNE) 2,305 6.8 -17.5°
Maximum altitude 03:18:05 37° 97° (E) 1,166 4.1 -17.1°
Enters shadow 03:22:18 12° 162° (SSE) 2,125 4.9 -16.7°
